Hays, KS

9:23 AM CST on December 15, 2017 (GMT -0600)
Hays Regional

Weather History for KHYS - January, 2014

Change the Weather History Date:

Wednesday, January 22, 2014

  Actual Average Record
Temperature  
Mean Temperature 27 °F -  
Max Temperature 42 °F 40 °F 66 °F (2002)
Min Temperature 12 °F 17 °F 1 °F (2008)
Degree Days  
Heating Degree Days 38    
Moisture  
Dew Point 14 °F    
Average Humidity 56    
Maximum Humidity 80    
Minimum Humidity 38    
Precipitation  
Precipitation 0.00 in - - ()
Sea Level Pressure  
Sea Level Pressure 30.22 in    
Wind  
Wind Speed 11 mph (North)    
Max Wind Speed 30 mph    
Max Gust Speed 34 mph    
Visibility 10 miles    
Events      
Averages and records for this station are not official NWS values.
T = Trace of Precipitation, MM = Missing Value Source: NWS Daily Summary

Daily Weather History Graph

Daily Weather History Graph

Search for Another Location

Airport or City:

Trip Planner

Search our weather history database for the weather conditions in past years. The results will help you decide how hot, cold, wet, or windy it might be!

Date:

Astronomy

Jan. 22, 2014 Rise Set
Actual Time 7:50 AM CST 5:47 PM CST
Civil Twilight 7:21 AM CST 6:15 PM CST
Nautical Twilight 6:49 AM CST 6:48 PM CST
Astronomical Twilight 6:17 AM CST 7:20 PM CST
Moon No Moon Rise 10:56 AM CST (1/22)
Length of Visible Light 10h 54m
Length of Day
9h 56m
Waning Gibbous, 65% of the Moon is Illuminated
Jan 22
Waning Gibbous
Jan 23
Last Quarter
Jan 30
New
Feb 6
First Quarter
Feb 14
Full

Hourly Weather History & Observations

Time (CST) Temp. Windchill Dew Point Humidity Pressure Visibility Wind Dir Wind Speed Gust Speed Precip Events Conditions
12:15 AM 33.8 °F 29.6 °F 17.6 °F 52% 30.10 in 10.0 mi North 4.6 mph - N/A   Clear
12:35 AM 30.2 °F 22.6 °F 17.6 °F 60% 30.09 in 10.0 mi North 8.1 mph - N/A   Clear
12:55 AM 30.2 °F 22.6 °F 15.8 °F 55% 30.10 in 10.0 mi North 8.1 mph - N/A   Clear
1:15 AM 32.0 °F 24.2 °F 17.6 °F 55% 30.10 in 10.0 mi NNE 9.2 mph - N/A   Clear
1:35 AM 33.8 °F 28.6 °F 17.6 °F 52% 30.09 in 10.0 mi NNE 5.8 mph - N/A   Clear
1:55 AM 33.8 °F 29.6 °F 17.6 °F 52% 30.10 in 10.0 mi North 4.6 mph - N/A   Clear
2:15 AM 30.2 °F 22.6 °F 15.8 °F 55% 30.11 in 10.0 mi North 8.1 mph - N/A   Clear
2:35 AM 28.4 °F 21.2 °F 14.0 °F 55% 30.11 in 10.0 mi North 6.9 mph - N/A   Clear
2:55 AM 26.6 °F 22.6 °F 15.8 °F 64% 30.12 in 10.0 mi NW 3.5 mph - N/A   Clear
3:15 AM 24.8 °F 16.1 °F 15.8 °F 69% 30.13 in 10.0 mi West 8.1 mph - N/A   Clear
3:35 AM 24.8 °F 16.9 °F 15.8 °F 69% 30.13 in 10.0 mi West 6.9 mph - N/A   Clear
3:55 AM 24.8 °F 16.9 °F 15.8 °F 69% 30.14 in 10.0 mi West 6.9 mph - N/A   Clear
4:15 AM 24.8 °F 19.1 °F 15.8 °F 69% 30.13 in 10.0 mi West 4.6 mph - N/A   Clear
4:35 AM 21.2 °F 12.6 °F 14.0 °F 74% 30.13 in 10.0 mi West 6.9 mph - N/A   Clear
4:55 AM 24.8 °F 16.9 °F 17.6 °F 74% 30.13 in 10.0 mi West 6.9 mph - N/A   Clear
5:15 AM 24.8 °F 17.9 °F 15.8 °F 69% 30.13 in 10.0 mi West 5.8 mph - N/A   Clear
5:35 AM 19.4 °F 11.5 °F 12.2 °F 74% 30.14 in 10.0 mi NW 5.8 mph - N/A   Clear
5:55 AM 21.2 °F 12.6 °F 15.8 °F 80% 30.15 in 10.0 mi NW 6.9 mph - N/A   Clear
6:15 AM 21.2 °F 12.6 °F 14.0 °F 74% 30.14 in 10.0 mi NW 6.9 mph - N/A   Clear
6:35 AM 21.2 °F 11.7 °F 15.8 °F 80% 30.15 in 10.0 mi NNW 8.1 mph - N/A   Clear
6:55 AM 21.2 °F 11.7 °F 15.8 °F 80% 30.15 in 10.0 mi NW 8.1 mph - N/A   Clear
7:15 AM 21.2 °F 11.7 °F 15.8 °F 80% 30.17 in 10.0 mi NW 8.1 mph - N/A   Clear
7:35 AM 21.2 °F 13.6 °F 15.8 °F 80% 30.18 in 10.0 mi NW 5.8 mph - N/A   Clear
7:55 AM 21.2 °F 12.6 °F 15.8 °F 80% 30.19 in 10.0 mi NW 6.9 mph - N/A   Clear
8:15 AM 21.2 °F 12.6 °F 15.8 °F 80% 30.19 in 10.0 mi NW 6.9 mph - N/A   Clear
8:35 AM 23.0 °F 15.8 °F 17.6 °F 80% 30.19 in 10.0 mi NW 5.8 mph - N/A   Clear
8:55 AM 24.8 °F 16.9 °F 19.4 °F 80% 30.20 in 10.0 mi NW 6.9 mph - N/A   Clear
9:15 AM 26.6 °F 18.2 °F 19.4 °F 74% 30.21 in 10.0 mi North 8.1 mph - N/A   Clear
9:35 AM 30.2 °F 22.6 °F 21.2 °F 69% 30.22 in 10.0 mi North 8.1 mph - N/A   Clear
9:55 AM 33.8 °F 25.8 °F 21.2 °F 60% 30.22 in 10.0 mi NNE 10.4 mph - N/A   Mostly Cloudy
10:15 AM 35.6 °F 25.9 °F 23.0 °F 60% 30.23 in 10.0 mi NNE 16.1 mph - N/A   Overcast
10:35 AM 35.6 °F 25.5 °F 21.2 °F 56% 30.23 in 10.0 mi NNE 17.3 mph 21.9 mph N/A   Mostly Cloudy
10:55 AM 37.4 °F 27.8 °F 21.2 °F 52% 30.23 in 10.0 mi NNE 17.3 mph - N/A   Partly Cloudy
11:15 AM 37.4 °F 27.5 °F 19.4 °F 48% 30.23 in 10.0 mi NNE 18.4 mph - N/A   Clear
11:35 AM 37.4 °F 28.2 °F 21.2 °F 52% 30.22 in 10.0 mi NNE 16.1 mph - N/A   Clear
11:55 AM 39.2 °F 30.8 °F 21.2 °F 49% 30.21 in 10.0 mi North 15.0 mph - N/A   Clear
12:15 PM 39.2 °F 30.8 °F 21.2 °F 49% 30.20 in 10.0 mi NNE 15.0 mph 19.6 mph N/A   Clear
12:35 PM 39.2 °F 31.6 °F 21.2 °F 49% 30.19 in 10.0 mi NNE 12.7 mph - N/A   Clear
12:55 PM 39.2 °F 31.6 °F 21.2 °F 49% 30.18 in 10.0 mi North 12.7 mph 18.4 mph N/A   Clear
1:15 PM 41.0 °F 33.5 °F 21.2 °F 45% 30.17 in 10.0 mi NNW 13.8 mph - N/A   Clear
1:35 PM 42.8 °F 36.2 °F 21.2 °F 42% 30.16 in 10.0 mi North 12.7 mph 16.1 mph N/A   Clear
1:55 PM 42.8 °F 35.8 °F 21.2 °F 42% 30.16 in 10.0 mi North 13.8 mph - N/A   Partly Cloudy
2:15 PM 42.8 °F 35.8 °F 21.2 °F 42% 30.15 in 10.0 mi North 13.8 mph 17.3 mph N/A   Mostly Cloudy
2:35 PM 42.8 °F 35.8 °F 21.2 °F 42% 30.15 in 10.0 mi North 13.8 mph 23.0 mph N/A   Overcast
2:55 PM 42.8 °F 35.1 °F 21.2 °F 42% 30.15 in 10.0 mi North 16.1 mph 21.9 mph N/A   Mostly Cloudy
3:15 PM 42.8 °F 35.4 °F 21.2 °F 42% 30.15 in 10.0 mi NNE 15.0 mph - N/A   Mostly Cloudy
3:35 PM 39.2 °F 30.2 °F 19.4 °F 45% 30.16 in 10.0 mi North 17.3 mph - N/A   Mostly Cloudy
3:55 PM 39.2 °F 30.5 °F 19.4 °F 45% 30.17 in 10.0 mi North 16.1 mph - N/A   Overcast
4:15 PM 41.0 °F 33.5 °F 19.4 °F 42% 30.17 in 10.0 mi North 13.8 mph 21.9 mph N/A   Overcast
4:35 PM 39.2 °F 30.5 °F 19.4 °F 45% 30.18 in 10.0 mi North 16.1 mph 23.0 mph N/A   Overcast
4:55 PM 39.2 °F 29.6 °F 17.6 °F 42% 30.18 in 10.0 mi North 19.6 mph 23.0 mph N/A   Mostly Cloudy
5:15 PM 39.2 °F 30.2 °F 17.6 °F 42% 30.19 in 10.0 mi North 17.3 mph - N/A   Mostly Cloudy
5:35 PM 37.4 °F 27.8 °F 15.8 °F 41% 30.20 in 10.0 mi NNE 17.3 mph - N/A   Mostly Cloudy
5:55 PM 35.6 °F 25.9 °F 15.8 °F 44% 30.22 in 10.0 mi NNE 16.1 mph - N/A   Overcast
6:15 PM 35.6 °F 24.8 °F 14.0 °F 41% 30.24 in 10.0 mi NNE 19.6 mph 32.2 mph N/A   Overcast
6:35 PM 33.8 °F 20.1 °F 12.2 °F 41% 30.26 in 10.0 mi NNE 29.9 mph 34.5 mph N/A   Mostly Cloudy
6:55 PM 30.2 °F 15.9 °F 12.2 °F 47% 30.28 in 10.0 mi NNE 26.5 mph 31.1 mph N/A   Partly Cloudy
7:15 PM 28.4 °F 13.8 °F 12.2 °F 51% 30.30 in 10.0 mi NNE 25.3 mph 32.2 mph N/A   Clear
7:35 PM 26.6 °F 13.1 °F 10.4 °F 51% 30.31 in 10.0 mi NNE 19.6 mph 27.6 mph N/A   Mostly Cloudy
7:55 PM 26.6 °F 12.0 °F 10.4 °F 51% 30.33 in 10.0 mi NE 23.0 mph 28.8 mph N/A   Overcast
8:15 PM 24.8 °F 8.7 °F 8.6 °F 50% 30.34 in 10.0 mi NNE 26.5 mph 32.2 mph N/A   Overcast
8:35 PM 23.0 °F 8.0 °F 6.8 °F 50% 30.36 in 10.0 mi NE 20.7 mph 32.2 mph N/A   Overcast
8:55 PM 21.2 °F 3.9 °F 6.8 °F 54% 30.39 in 10.0 mi NNE 26.5 mph 31.1 mph N/A   Overcast
9:15 PM 19.4 °F 2.1 °F 3.2 °F 49% 30.40 in 10.0 mi NNE 24.2 mph 33.4 mph N/A   Overcast
9:35 PM 17.6 °F -1.6 °F 1.4 °F 49% 30.42 in 10.0 mi NNE 28.8 mph 34.5 mph N/A   Overcast
9:55 PM 17.6 °F 0.1 °F 1.4 °F 49% 30.42 in 10.0 mi NNE 23.0 mph 31.1 mph N/A   Overcast
10:15 PM 15.8 °F -3.1 °F -0.4 °F 49% 30.44 in 10.0 mi NNE 25.3 mph 31.1 mph N/A   Overcast
10:35 PM 15.8 °F -1.1 °F -5.8 °F 38% 30.46 in 10.0 mi NNE 19.6 mph - N/A   Overcast
10:55 PM 14.0 °F -2.5 °F -7.6 °F 38% 30.48 in 10.0 mi NNE 17.3 mph 24.2 mph N/A   Mostly Cloudy
11:15 PM 14.0 °F -3.4 °F -7.6 °F 38% 30.49 in 10.0 mi NNE 19.6 mph - N/A   Overcast
11:35 PM 12.2 °F -4.8 °F -7.6 °F 41% 30.50 in 10.0 mi NNE 17.3 mph - N/A   Overcast
11:55 PM 12.2 °F -5.3 °F -7.6 °F 41% 30.50 in 10.0 mi NNE 18.4 mph - N/A   Overcast